[[{"header":{"parameterUnit":"m.s-1","parameterCategory":1,"la1":30.2991,"la2":30.254,"lo1":-89.0895,"lo2":-89.0444,"dy":0.0017,"dx":0.0017,"nx":28,"ny":28,"refTime":"2024-04-29T09:00:00:Z","depth":0,"parameterNumber":2,"parameterNumberName":"U-component_of_WINDS"},"data":[0,0,0,0,0,0,0,0,0,0,0,0,0,0,0,0,0,0,0,0,0,0,0,0,0,0,0,0,0,0,0,0,0,0,0,0,0,0,0,0,0,0,0,0,0,0,0,0,0,0,0,0,0,0,0,0,0,0,0.4023,0.4024,0,0.4109,0.411,0.4111,0.4152,0.4152,0.4152,0.4152,0.4241,0.4243,0.4246,0,0,0,0,0,0,0,0,0,0,0,0,0,0.3892,0.3894,0.4023,0.4024,0.4025,0.4109,0.411,0.4112,0.4152,0.4152,0.4152,0.4152,0.424,0.4243,0.4246,0,0,0,0,0,0,0,0,0,0,0,0,0,0.3961,0.3895,0.4023,0.4055,0.4059,0.4109,0.4111,0.4112,0.4152,0.4152,0.4152,0.4152,0.4239,0.4243,0.4246,0.4271,0,0,0.4257,0.4259,0,0,0,0,0,0,0,0,0.3957,0.3965,0.4049,0.4053,0.4057,0.412,0.4097,0.4165,0.4152,0.4117,0.4152,0.4152,0.4201,0.4208,0.4224,0.4275,0.4279,0.4258,0.426,0.4262,0.4263,0,0,0,0,0,0,0,0.3952,0.3962,0.4057,0.4051,0.4055,0.4065,0.4075,0.411,0.4158,0.412,0.4123,0.4133,0.4203,0.422,0.4226,0.428,0.4258,0.4261,0.4263,0.4265,0.4354,0.4354,0,0,0,0,0,0,0.3942,0.3958,0.4054,0.406,0.4006,0.4068,0.4079,0.41,0.4158,0.4167,0.4133,0.4134,0.4214,0.4222,0.423,0.4262,0.4262,0.4265,0.4267,0.4354,0.4354,0.4354,0,0,0,0,0,0,0.3939,0.395,0.4051,0.401,0.4023,0.407,0.4094,0.4102,0.4119,0.4168,0.4176,0.4142,0.4214,0.4225,0.426,0.4265,0.4267,0.427,0.4354,0.4354,0.4354,0.4325,0,0,0,0,0,0,0.3935,0.3949,0.3959,0.4009,0.4025,0.408,0.4094,0.4103,0.4125,0.4128,0.4178,0.4187,0.4215,0.4254,0.4263,0.427,0.4273,0.4353,0.4354,0.4354,0.4326,0.4325,0.4323,0,0,0,0,0,0.393,0.3947,0.3959,0.397,0.4038,0.408,0.4089,0.4121,0.4126,0.4136,0.4167,0.4185,0.4263,0.4257,0.4268,0.4276,0.4353,0.4354,0.4354,0.4327,0.4325,0.4324,0,0,0,0,0,0,0.3896,0.3955,0.3968,0.4002,0.4036,0.4087,0.4101,0.4118,0.4152,0.4153,0.4192,0.4203,0.4234,0.4259,0.4252,0.4302,0.431,0.4312,0.4285,0.4284,0.4283,0.4276,0.4276,0,0,0,0,0,0.3892,0.3921,0.3971,0.3996,0.4012,0.4053,0.4073,0.4094,0.4131,0.4145,0.4179,0.4213,0.4246,0.4266,0.4299,0.433,0.4341,0.434,0.4339,0.4338,0.434,0.4357,0.4357,0.4356,0.4356,0.4356,0,0,0.3885,0.3921,0.3937,0.399,0.4019,0.4047,0.4065,0.4095,0.4117,0.415,0.4185,0.4211,0.4252,0.4285,0.4301,0.4306,0.4342,0.4338,0.4337,0.434,0.4358,0.4358,0.4358,0.4356,0.4356,0.4356,0,0,0.3888,0.3917,0.3942,0.397,0.4012,0.4039,0.4045,0.4093,0.4111,0.4147,0.4173,0.4199,0.4254,0.4282,0.4303,0.4314,0.4333,0.4324,0.4317,0.4334,0.4334,0.4335,0.4338,0.4339,0.4326,0.4326,0.4325,0,0.3873,0.3918,0.3952,0.398,0.4003,0.4033,0.4058,0.4084,0.4135,0.4149,0.4154,0.4223,0.4253,0.4293,0.4295,0.4312,0.4319,0.4319,0.4331,0.4332,0.4333,0.4337,0.4338,0.4324,0.4324,0.4324,0.4325,0,0.3899,0.3929,0.3943,0.3992,0.4016,0.4042,0.4079,0.4099,0.4119,0.4145,0.4181,0.4218,0.4258,0.4269,0.4288,0.4311,0.4313,0.4324,0.4332,0.4331,0.4336,0.4338,0.4322,0.4323,0.4323,0.4323,0,0,0.3883,0.3948,0.3953,0.3975,0.4024,0.4048,0.4075,0.4114,0.4131,0.4165,0.4188,0.4233,0.4244,0.4268,0.4291,0.4305,0.4312,0.4315,0.4316,0.4313,0.4339,0.433,0.4332,0.4324,0.4324,0.4324,0.4335,0,0.3891,0.3942,0.3973,0.4011,0.4039,0.4068,0.4092,0.4124,0.4149,0.4177,0.4204,0.4236,0.4247,0.4262,0.4277,0.4307,0.4317,0.4307,0.4346,0.4347,0.4335,0.4334,0.4325,0.4334,0.4337,0.4338,0.4338,0,0.3909,0.3942,0.3983,0.4028,0.4041,0.4062,0.4099,0.4125,0.4162,0.4179,0.4206,0.4228,0.4258,0.4263,0.4304,0.4297,0.4314,0.4331,0.4332,0.4337,0.4343,0.4339,0.4338,0.4339,0.4341,0.4341,0.4341,0,0.3893,0.3947,0.3979,0.3997,0.405,0.4064,0.4087,0.4124,0.4145,0.4178,0.4192,0.4228,0.4247,0.4274,0.4306,0.4307,0.4344,0.4352,0.4359,0.4358,0.4366,0.4365,0.4367,0.4376,0.4376,0.4376,0.4376,0,0.39,0.3924,0.3972,0.3992,0.4019,0.4053,0.4079,0.4105,0.4137,0.4161,0.4189,0.4211,0.4251,0.4278,0.4303,0.4333,0.4342,0.4356,0.4363,0.4354,0.4352,0.4367,0.4367,0.4377,0.4377,0.4376,0.4376,0,0.3887,0.3921,0.3957,0.4004,0.4017,0.4035,0.4075,0.4095,0.4121,0.4151,0.416,0.4201,0.4234,0.4268,0.4313,0.433,0.4359,0.4368,0.4347,0.435,0.4355,0.4354,0.4367,0.437,0.4377,0.4377,0.4377,0,0.389,0.3909,0.3958,0.3976,0.3998,0.4027,0.4049,0.4083,0.4105,0.4148,0.4162,0.4197,0.4227,0.4279,0.4312,0.4347,0.4356,0.4358,0.4362,0.4352,0.4356,0.4355,0.4357,0.4357,0.4357,0.4357,0.4357,0,0.3891,0.3906,0.3936,0.3972,0.3997,0.4026,0.4057,0.407,0.411,0.4133,0.4167,0.419,0.4236,0.427,0.4308,0.4332,0.4351,0.4355,0.4358,0.435,0.4337,0.4344,0.4343,0.4355,0.4355,0.4355,0.4355,0.4355,0.3886,0.3904,0.3941,0.3973,0.4,0.4028,0.4048,0.4076,0.4106,0.4145,0.4164,0.4198,0.4233,0.4286,0.4309,0.4336,0.4342,0.4347,0.4348,0.4349,0.4347,0.4332,0.4343,0.4343,0.4343,0.4344,0.4344,0,0.3888,0.3913,0.3942,0.3984,0.401,0.4025,0.4059,0.4079,0.4109,0.4141,0.4169,0.4208,0.4241,0.4277,0.4312,0.4327,0.4337,0.4335,0.4335,0.434,0.434,0.4333,0.4327,0.4327,0.4327,0.4327,0.4327,0.4327,0.3892,0.3923,0.3943,0.3987,0.4012,0.4046,0.4064,0.4089,0.4115,0.4157,0.4185,0.4207,0.4241,0.4278,0.4309,0.4319,0.4331,0.4327,0.4339,0.4338,0.434,0.4341,0.4335,0.4329,0.4329,0.4336,0.4336,0.4336]},{"header":{"parameterUnit":"m.s-1","parameterCategory":1,"la1":30.2991,"la2":30.254,"lo1":-89.0895,"lo2":-89.0444,"dy":0.0017,"dx":0.0017,"nx":28,"ny":28,"refTime":"2024-04-29T09:00:00:Z","depth":0,"parameterNumber":3,"parameterNumberName":"V-component_of_WINDS"},"data":[0,0,0,0,0,0,0,0,0,0,0,0,0,0,0,0,0,0,0,0,0,0,0,0,0,0,0,0,0,0,0,0,0,0,0,0,0,0,0,0,0,0,0,0,0,0,0,0,0,0,0,0,0,0,0,0,0,0,3.855,3.8551,0,3.8638,3.8639,3.864,3.8655,3.8654,3.8653,3.8652,3.8735,3.8738,3.8741,0,0,0,0,0,0,0,0,0,0,0,0,0,3.839,3.8393,3.855,3.8551,3.8553,3.8637,3.8639,3.864,3.8655,3.8654,3.8653,3.8652,3.8734,3.8737,3.8741,0,0,0,0,0,0,0,0,0,0,0,0,0,3.8467,3.8394,3.855,3.857,3.8573,3.8637,3.8639,3.864,3.8655,3.8654,3.8653,3.8652,3.8733,3.8737,3.8741,3.8789,0,0,3.8754,3.8756,0,0,0,0,0,0,0,0,3.8462,3.8472,3.8566,3.8569,3.8572,3.8634,3.8612,3.869,3.8655,3.8624,3.8652,3.8651,3.8702,3.8709,3.8727,3.8793,3.8797,3.8755,3.8757,3.8759,3.876,0,0,0,0,0,0,0,3.8457,3.8469,3.8585,3.8568,3.8571,3.8573,3.8583,3.8627,3.8667,3.8626,3.8628,3.8638,3.8703,3.8723,3.8729,3.8798,3.8755,3.8758,3.8761,3.8763,3.8907,3.8909,0,0,0,0,0,0,3.8449,3.8464,3.8582,3.8587,3.8514,3.8577,3.8588,3.8615,3.8667,3.8674,3.8639,3.8638,3.8716,3.8724,3.8732,3.8792,3.8759,3.8763,3.8766,3.8906,3.8908,3.8909,0,0,0,0,0,0,3.8446,3.8459,3.8578,3.8526,3.8542,3.8581,3.8612,3.8618,3.8637,3.8677,3.8683,3.8652,3.8716,3.8726,3.8775,3.8795,3.8765,3.8769,3.8905,3.8907,3.8908,3.8912,0,0,0,0,0,0,3.8441,3.8458,3.8478,3.8527,3.8544,3.8622,3.8613,3.862,3.8646,3.8646,3.8691,3.8697,3.8716,3.8769,3.878,3.88,3.8772,3.8903,3.8906,3.8908,3.891,3.8913,3.8916,0,0,0,0,0,3.8435,3.8474,3.8479,3.8493,3.8571,3.8623,3.8633,3.8655,3.8647,3.8667,3.8692,3.8696,3.8791,3.8774,3.8786,3.8808,3.8902,3.8905,3.8908,3.8908,3.8913,3.8916,0,0,0,0,0,0,3.8424,3.8481,3.8487,3.8543,3.8579,3.8626,3.8651,3.8659,3.8696,3.8694,3.8718,3.8728,3.8776,3.8797,3.8777,3.8857,3.8846,3.8851,3.8842,3.8846,3.885,3.8843,3.8776,0,0,0,0,0,3.8429,3.8469,3.8515,3.856,3.8578,3.8612,3.8635,3.865,3.8686,3.8701,3.8729,3.8763,3.8801,3.8825,3.8861,3.8913,3.8923,3.8934,3.8937,3.894,3.8944,3.8973,3.8978,3.8918,3.8918,3.8918,0,0,3.8437,3.8473,3.8497,3.8559,3.8588,3.8627,3.8624,3.8665,3.8694,3.8706,3.8755,3.8777,3.8816,3.8867,3.8891,3.8886,3.8963,3.8944,3.8945,3.8948,3.8976,3.8982,3.8987,3.892,3.892,3.892,0,0,3.8474,3.8506,3.8547,3.8577,3.8622,3.8644,3.8654,3.87,3.8716,3.8767,3.8777,3.881,3.8874,3.8902,3.8924,3.8972,3.8976,3.8983,3.8999,3.9027,3.9032,3.9036,3.9053,3.9059,3.8987,3.8987,3.8987,0,3.8479,3.8541,3.8566,3.8608,3.8635,3.865,3.8691,3.8718,3.8771,3.8788,3.8783,3.8865,3.8892,3.8949,3.8961,3.8979,3.899,3.8978,3.903,3.9034,3.9038,3.9055,3.9061,3.8987,3.8987,3.8987,3.8987,0,3.8544,3.8586,3.8614,3.8668,3.8698,3.8739,3.8769,3.8795,3.8807,3.883,3.888,3.8913,3.8957,3.8972,3.8983,3.9031,3.9027,3.9025,3.9014,3.9044,3.906,3.9066,3.8988,3.8988,3.8988,3.8988,0,0,3.8575,3.8645,3.8654,3.8679,3.873,3.8763,3.8804,3.8849,3.8871,3.8907,3.8942,3.8996,3.8996,3.9021,3.9035,3.9059,3.9095,3.9055,3.9056,3.9061,3.915,3.9151,3.9158,3.9099,3.91,3.9101,3.9147,0,3.8617,3.8694,3.8719,3.8782,3.8821,3.8836,3.8872,3.8906,3.8928,3.8963,3.8986,3.9024,3.902,3.9036,3.9061,3.9085,3.9113,3.9082,3.9129,3.9131,3.9119,3.9166,3.9167,3.9209,3.9153,3.9154,3.9155,0,3.8677,3.8717,3.8785,3.8832,3.8849,3.8881,3.8925,3.8959,3.8997,3.9011,3.904,3.9053,3.9095,3.9081,3.9139,3.9117,3.9138,3.9153,3.9155,3.916,3.9144,3.9172,3.9222,3.9228,3.9165,3.9164,3.9163,0,3.8693,3.8763,3.8813,3.8834,3.889,3.8912,3.8936,3.8974,3.9,3.9038,3.9054,3.9095,3.9117,3.9148,3.9171,3.9159,3.9226,3.9214,3.9237,3.9237,3.925,3.9249,3.9305,3.9264,3.9264,3.9264,3.9264,0,3.8737,3.8778,3.8822,3.8852,3.8898,3.8925,3.8968,3.8993,3.9027,3.9061,3.9076,3.9107,3.9135,3.917,3.9187,3.9232,3.9241,3.9253,3.9257,3.9252,3.925,3.9265,3.9263,3.9265,3.9265,3.9265,3.9264,0,3.8762,3.8793,3.8849,3.8898,3.8911,3.8943,3.8984,3.9013,3.9036,3.9079,3.9091,3.9126,3.9168,3.9194,3.9246,3.9258,3.9306,3.931,3.9294,3.9296,3.9318,3.9315,3.9385,3.9395,3.9347,3.9348,3.9348,0,3.8788,3.882,3.8874,3.89,3.8925,3.8965,3.8992,3.9019,3.9047,3.9094,3.9117,3.916,3.9196,3.9262,3.9291,3.933,3.9334,3.9356,3.934,3.9334,3.9335,3.9333,3.9336,3.9358,3.9359,3.9359,3.9359,0,3.8832,3.8846,3.8886,3.8932,3.8964,3.9001,3.9037,3.9056,3.909,3.912,3.9164,3.9192,3.9247,3.9289,3.9331,3.9354,3.9362,3.9364,3.9372,3.9366,3.9356,3.9362,3.9301,3.9362,3.9362,3.9362,3.9362,3.9361,3.8858,3.8887,3.893,3.8974,3.9005,3.9039,3.907,3.9098,3.9136,3.9184,3.9197,3.9243,3.9281,3.9339,3.9363,3.9398,3.9395,3.9405,3.9408,3.941,3.9411,3.9351,3.9406,3.9405,3.9405,3.9405,3.9405,0,3.8902,3.8931,3.8971,3.9023,3.9057,3.9065,3.9105,3.9133,3.9174,3.921,3.9246,3.9296,3.9338,3.9371,3.9413,3.9434,3.9439,3.9444,3.9443,3.9448,3.9411,3.9401,3.944,3.944,3.944,3.944,3.944,3.944,3.8929,3.8979,3.8999,3.9064,3.9092,3.9139,3.9162,3.9193,3.9221,3.9278,3.9314,3.9336,3.937,3.9415,3.9453,3.9461,3.9476,3.948,3.9489,3.9454,3.945,3.9447,3.9437,3.9483,3.9483,3.9523,3.9524,3.9524]}]]